Weather in Tholen

Netherlands     51°32′08″N   4°13′24″E
temp.,
°C
wind,
m/s
gust,
m/s
humid.,
%
clouds,
%
prec.,
mm/h
press.,
hPa
HPBL,
m
26 june, sun
sun2623:00+16s2389100 0.0 1012257
02:00+16sw5889100 1.3 1012417
05:00+15sw5786100 0.0 1013327
08:00+15sw6884100 0.0 1014404
11:00+17ssw5668100 0.0 1016686
14:00+19ssw4656100 0.0 10161119
17:00+21sw4653100 0.0 1015982
20:00+19wnw1164100 0.0 101421
27 june, mon
mon2723:00+18nne2268100 0.0 101547
02:00+18sse1172100 0.1 101513
05:00+17sw3466100 0.0 1015137
08:00+17ssw4577100 0.0 1016245
11:00+19sw796881 0.4 1016665
14:00+18w3458100 0.8 1018809
17:00+19nw4457100 0.1 1018549
20:00+18wnw456195 0.1 1019682
28 june, tue
tue2823:00+16wsw346392 0.0 1021280
02:00+15wsw57705 0.0 1021312
05:00+14sw56755 0.0 1021268
08:00+14sw45710 0.0 1021300
11:00+17sw35583 0.0 1021546
14:00+19sw14513 0.0 1019888
17:00+23s2444100 0.0 10181016
20:00+23se3353100 0.0 101662
29 june, wed
wed2923:00+20sse22607 0.0 101713
02:00+18s3366100 0.0 101649
05:00+17s45685 0.0 1015107
08:00+18ssw5668100 0.0 1016240
11:00+20sw345733 0.0 1016378
14:00+23sw24480 0.0 1015888
17:00+25sw35435 0.0 10131034
20:00+21nw5767100 0.0 1013132
30 june, thu
thu3023:00+17n34720 0.0 101479
02:00+18ene34740 0.0 101362
05:00+17e23750 0.0 101161
08:00+19e12673 0.0 101270
11:00+23s125736 0.0 1011368
14:00+24ssw2453100 0.0 10101007
17:00+21nw8973100 0.1 1009393
20:00+18nw5692100 4.1 1009261